Simultaneous Nadir Overpasses (SNOs) Predictions

Prediction of SNOs between GOES-15 and NPP Satellite Orbit:

Table of predicted SNOs for the next 14.0 days since TLE Epoch: 11/23/2024
Index Date Time (GOES-15) GOES-15 Lat,Lon NPP Lat,Lon Distance(km) Time Diff (sec)
1 11/24/2024 09:26:47 -0.03, 61.66 -0.58, 59.28 271.97 80
2 11/25/2024 09:10:46 -0.04, 61.64 0.46, 63.79 245.55 80
3 11/26/2024 21:32:38 0.01, 61.56 0.68, 58.50 348.71 80
4 11/27/2024 21:11:15 0.03, 61.56 -0.31, 63.03 167.72 80
5 11/29/2024 09:33:16 -0.01, 61.60 -0.90, 57.71 444.14 80
6 11/30/2024 09:17:14 -0.02, 61.59 0.14, 62.23 72.79 80
7 12/02/2024 21:17:43 0.02, 61.51 0.04, 61.47 5.67 80
8 12/05/2024 09:21:01 -0.01, 61.58 -0.24, 60.68 104.01 80
9 12/06/2024 09:04:59 -0.02, 61.58 0.82, 65.19 412.04 80
